Location: Gro�sch�nbrunn
(49.5760°N, 11.8868°E)
Time: 06:53:27
(UTC+00:00)

ATLAS CENTAUR R/B - Pass Details

Date: 18 September 2020
Orbit: 479 x 667 km, 64.7° (Epoch: 12 October)

Event Time Altitude Azimuth Distance (km) Brightness Sun altitude
Rises 17:47:48 0° 252° (WSW) 2,672 6.1 -5.6°
Reaches altitude 10° 17:50:18 10° 265° (W) 1,753 5.5 -6.0°
Maximum altitude 17:53:37 26° 323° (NW) 1,030 3.3 -6.5°
Drops below altitude 10° 17:56:50 10° 22° (NNE) 1,695 3.7 -7.0°
Sets 17:59:12 0° 35° (NE) 2,563 4.5 -7.4°
